When you browse on this site, cookies collect data to enhance your experience and personalize the content and advertising you see.
Visit our Privacy Policy to learn more. By continuing to use the site, you agree to this use of cookies and data.

Tiempo cada hora Darwin

Hoy, 12 Julio, Domingo

Tiempo Temperatura Precipitaciones Viento Presión Humedad
00:00 +25°C° 0 mm 0 mps 758 mmHg 71%
01:00 +26°C° 0 mm 1 mps 758 mmHg 71%
02:00 +26°C° 0 mm 1 mps 758 mmHg 72%
03:00 +26°C° 0 mm 1 mps 758 mmHg 70%
04:00 +26°C° 0 mm 2 mps 758 mmHg 70%
05:00 +26°C° 0 mm 2 mps 758 mmHg 70%
06:00 +25°C° 0 mm 2 mps 758 mmHg 70%
07:00 +27°C° 0 mm 3 mps 759 mmHg 63%
08:00 +28°C° 0 mm 4 mps 759 mmHg 56%
09:00 +29°C° 0 mm 5 mps 760 mmHg 49%
10:00 +32°C° 0 mm 5 mps 759 mmHg 44%
11:00 +34°C° 0 mm 5 mps 759 mmHg 40%
12:00 +35°C° 0 mm 4 mps 758 mmHg 35%
13:00 +36°C° 0 mm 4 mps 758 mmHg 34%
14:00 +37°C° 0 mm 4 mps 757 mmHg 33%
15:00 +37°C° 0 mm 3 mps 757 mmHg 32%
16:00 +35°C° 0 mm 3 mps 757 mmHg 37%
17:00 +34°C° 0 mm 2 mps 757 mmHg 42%
18:00 +31°C° 0 mm 2 mps 757 mmHg 47%
19:00 +30°C° 0 mm 2 mps 757 mmHg 48%
20:00 +30°C° 0 mm 2 mps 758 mmHg 49%
21:00 +29°C° 0 mm 2 mps 759 mmHg 50%
22:00 +28°C° 0 mm 2 mps 759 mmHg 47%
23:00 +26°C° 0 mm 3 mps 759 mmHg 44%

Mañana, 13 Julio, Lunes

Tiempo Temperatura Precipitaciones Viento Presión Humedad
00:00 +23°C° 0 mm 4 mps 759 mmHg 40%
01:00 +22°C° 0 mm 4 mps 759 mmHg 42%
02:00 +21°C° 0 mm 5 mps 759 mmHg 44%
03:00 +20°C° 0 mm 5 mps 759 mmHg 46%
04:00 +20°C° 0 mm 6 mps 760 mmHg 47%
05:00 +19°C° 0 mm 6 mps 760 mmHg 48%
06:00 +19°C° 0 mm 6 mps 760 mmHg 49%
07:00 +21°C° 0 mm 7 mps 761 mmHg 42%
08:00 +23°C° 0 mm 7 mps 761 mmHg 35%
09:00 +26°C° 0 mm 8 mps 761 mmHg 28%
10:00 +28°C° 0 mm 7 mps 761 mmHg 25%
11:00 +30°C° 0 mm 6 mps 760 mmHg 22%
12:00 +33°C° 0 mm 6 mps 760 mmHg 19%
13:00 +34°C° 0 mm 5 mps 759 mmHg 19%
14:00 +34°C° 0 mm 4 mps 758 mmHg 18%
15:00 +35°C° 0 mm 3 mps 758 mmHg 18%
16:00 +33°C° 0 mm 3 mps 758 mmHg 20%
17:00 +31°C° 0 mm 2 mps 758 mmHg 22%
18:00 +29°C° 0 mm 1 mps 758 mmHg 25%
19:00 +27°C° 0 mm 2 mps 758 mmHg 25%
20:00 +25°C° 0 mm 3 mps 759 mmHg 26%
21:00 +24°C° 0 mm 3 mps 760 mmHg 26%
22:00 +22°C° 0 mm 5 mps 760 mmHg 27%
23:00 +21°C° 0 mm 6 mps 760 mmHg 27%

Pasado mañana, 14 Julio, Martes

Tiempo Temperatura Precipitaciones Viento Presión Humedad
00:00 +21°C° 0 mm 7 mps 760 mmHg 28%
01:00 +20°C° 0 mm 7 mps 760 mmHg 31%
02:00 +19°C° 0 mm 6 mps 760 mmHg 34%
03:00 +17°C° 0 mm 6 mps 760 mmHg 36%
04:00 +16°C° 0 mm 6 mps 760 mmHg 39%
05:00 +15°C° 0 mm 6 mps 760 mmHg 41%
06:00 +15°C° 0 mm 6 mps 760 mmHg 43%
07:00 +17°C° 0 mm 6 mps 761 mmHg 39%
08:00 +20°C° 0 mm 7 mps 761 mmHg 35%
09:00 +22°C° 0 mm 7 mps 761 mmHg 31%
10:00 +24°C° 0 mm 6 mps 761 mmHg 27%
11:00 +28°C° 0 mm 5 mps 760 mmHg 22%
12:00 +32°C° 0 mm 4 mps 760 mmHg 17%
13:00 +33°C° 0 mm 4 mps 759 mmHg 17%
14:00 +34°C° 0 mm 3 mps 758 mmHg 18%
15:00 +35°C° 0 mm 2 mps 758 mmHg 18%
16:00 +31°C° 0 mm 2 mps 758 mmHg 25%
17:00 +29°C° 0 mm 2 mps 758 mmHg 32%
18:00 +26°C° 0 mm 2 mps 758 mmHg 39%
19:00 +24°C° 0 mm 2 mps 759 mmHg 43%
20:00 +23°C° 0 mm 2 mps 759 mmHg 46%
21:00 +21°C° 0 mm 2 mps 760 mmHg 50%
22:00 +20°C° 0 mm 2 mps 760 mmHg 47%
23:00 +20°C° 0 mm 3 mps 760 mmHg 45%

15 Julio, Miércoles

Tiempo Temperatura Precipitaciones Viento Presión Humedad
00:00 +19°C° 0 mm 3 mps 760 mmHg 42%
01:00 +19°C° 0 mm 3 mps 759 mmHg 43%
02:00 +19°C° 0 mm 4 mps 759 mmHg 44%
03:00 +19°C° 0 mm 5 mps 759 mmHg 45%
04:00 +17°C° 0 mm 5 mps 759 mmHg 50%
05:00 +17°C° 0 mm 5 mps 759 mmHg 55%
06:00 +16°C° 0 mm 5 mps 759 mmHg 60%
07:00 +19°C° 0 mm 5 mps 760 mmHg 59%
08:00 +22°C° 0 mm 5 mps 760 mmHg 58%
09:00 +25°C° 0 mm 5 mps 760 mmHg 57%
10:00 +27°C° 0 mm 5 mps 759 mmHg 51%
11:00 +30°C° 0 mm 4 mps 759 mmHg 46%
12:00 +34°C° 0 mm 4 mps 758 mmHg 40%
13:00 +35°C° 0 mm 4 mps 758 mmHg 38%
14:00 +36°C° 0 mm 4 mps 757 mmHg 36%
15:00 +37°C° 0 mm 4 mps 756 mmHg 35%
16:00 +34°C° 0 mm 3 mps 756 mmHg 44%
17:00 +31°C° 0 mm 3 mps 756 mmHg 54%
18:00 +28°C° 0 mm 2 mps 756 mmHg 64%
19:00 +27°C° 0 mm 2 mps 757 mmHg 68%
20:00 +26°C° 0 mm 2 mps 757 mmHg 73%
21:00 +25°C° 0 mm 2 mps 758 mmHg 77%
22:00 +24°C° 0 mm 2 mps 758 mmHg 76%
23:00 +24°C° 0 mm 3 mps 758 mmHg 75%

16 Julio, Jueves

Tiempo Temperatura Precipitaciones Viento Presión Humedad
00:00 +22°C° 0 mm 3 mps 758 mmHg 74%
01:00 +21°C° 0 mm 4 mps 758 mmHg 69%
02:00 +21°C° 0 mm 4 mps 758 mmHg 64%
03:00 +21°C° 0 mm 5 mps 758 mmHg 59%
04:00 +20°C° 0 mm 5 mps 758 mmHg 60%
05:00 +20°C° 0 mm 5 mps 759 mmHg 61%
06:00 +19°C° 0 mm 6 mps 759 mmHg 62%
07:00 +21°C° 0 mm 6 mps 759 mmHg 55%
08:00 +23°C° 0 mm 7 mps 760 mmHg 49%
09:00 +26°C° 0 mm 7 mps 760 mmHg 43%
10:00 +28°C° 0 mm 6 mps 759 mmHg 37%
11:00 +32°C° 0 mm 6 mps 759 mmHg 31%
12:00 +34°C° 0 mm 5 mps 758 mmHg 26%
13:00 +35°C° 0 mm 4 mps 757 mmHg 24%
14:00 +36°C° 0 mm 4 mps 757 mmHg 23%
15:00 +37°C° 0 mm 3 mps 756 mmHg 21%
16:00 +34°C° 0 mm 3 mps 756 mmHg 28%
17:00 +31°C° 0 mm 2 mps 756 mmHg 34%
18:00 +28°C° 0 mm 2 mps 756 mmHg 41%
19:00 +27°C° 0 mm 2 mps 757 mmHg 45%
20:00 +25°C° 0 mm 1 mps 757 mmHg 49%
21:00 +23°C° 0 mm 1 mps 758 mmHg 54%
22:00 +23°C° 0 mm 2 mps 758 mmHg 46%
23:00 +21°C° 0 mm 2 mps 758 mmHg 39%

17 Julio, Viernes

Tiempo Temperatura Precipitaciones Viento Presión Humedad
00:00 +21°C° 0 mm 3 mps 758 mmHg 31%
01:00 +20°C° 0 mm 3 mps 758 mmHg 30%
02:00 +20°C° 0 mm 3 mps 758 mmHg 29%
03:00 +20°C° 0 mm 4 mps 758 mmHg 28%
04:00 +19°C° 0 mm 4 mps 758 mmHg 29%
05:00 +18°C° 0 mm 4 mps 759 mmHg 31%
06:00 +17°C° 0 mm 4 mps 759 mmHg 32%
07:00 +19°C° 0 mm 5 mps 759 mmHg 30%
08:00 +22°C° 0 mm 5 mps 760 mmHg 29%
09:00 +24°C° 0 mm 6 mps 760 mmHg 27%
10:00 +28°C° 0 mm 5 mps 759 mmHg 24%
11:00 +32°C° 0 mm 4 mps 759 mmHg 21%
12:00 +34°C° 0 mm 4 mps 758 mmHg 18%
13:00 +35°C° 0 mm 4 mps 758 mmHg 17%
14:00 +36°C° 0 mm 4 mps 757 mmHg 17%
15:00 +37°C° 0 mm 4 mps 756 mmHg 16%
16:00 +34°C° 0 mm 4 mps 756 mmHg 28%
17:00 +30°C° 0 mm 3 mps 756 mmHg 39%
18:00 +27°C° 0 mm 3 mps 757 mmHg 50%
19:00 +25°C° 0 mm 2 mps 757 mmHg 55%
20:00 +24°C° 0 mm 2 mps 757 mmHg 59%
21:00 +21°C° 0 mm 2 mps 758 mmHg 64%
22:00 +21°C° 0 mm 2 mps 758 mmHg 64%
23:00 +21°C° 0 mm 2 mps 758 mmHg 65%
Mostrar más